Вернуться в каталог

FENGYUN 1C DEB

АктивенPO
NORAD 30288·DEBRIS·🇨🇳 China

Запущен May 10, 1999 с Taiyuan Satellite Launch Center

Loading…

Ближайшие Пролёты (ближайшие 24 часа)

TLE

СвежийSource: Space-Track

Эпоха: Sep 14, 2026, 06:32 UTC

1 30288U 99025YZ  26257.27287779  .00002651  00000-0  94723-3 0  9999
2 30288  99.3949   7.3957 0020924 249.3129 139.6101 14.34945633 15148

Отслеживайте FENGYUN 1C DEB в реальном времени с AllMySat

Download on the App Store